QPF
0.00 0.00 0.00 0.01 0.01 0.01 0.01 0.02 0.02 0.02 0.01 0.01 0.01 0.01 0.01 0.01 0.01 0.01 0.01 0.01 0.01 0.01 0.01 0.01 0.01 0.01 0.01 0.01 0.00 0.00 0.00 0.00 0.00 0.01 0.01 0.01 0.01 0.01 0.01 0.01 0.01 0.02 0.02
0.00 0.00 0.00 0.01 0.01 0.01 0.02 0.02 0.02 0.01 0.01 0.01 0.01 0.01 0.01 0.01 0.01 0.01 0.01 0.01 0.01 0.01 0.01 0.01 0.01 0.01 0.01 0.00 0.00 0.00 0.00 0.00 0.00 0.00 0.01 0.01 0.02 0.02 0.02 0.02 0.02 0.02 0.02
0.00 0.00 0.00 0.01 0.01 0.01 0.01 0.02 0.01 0.01 0.01 0.01 0.01 0.01 0.01 0.01 0.01 0.01 0.01 0.01 0.01 0.01 0.01 0.01 0.01 0.01 0.01 0.00 0.00 0.00 0.00 0.00 0.00 0.00 0.01 0.01 0.02 0.02 0.02 0.01 0.02 0.02 0.01
0.00 0.00 0.00 0.01 0.02 0.02 0.02 0.02 0.01 0.01 0.01 0.02 0.02 0.01 0.02 0.01 0.01 0.01 0.01 0.01 0.01 0.01 0.01 0.01 0.01 0.01 0.00 0.00 0.00 0.00 0.00 0.00 0.00 0.00 0.01 0.01 0.01 0.02 0.03 0.02 0.02 0.01 0.01
0.00 0.00 0.01 0.01 0.02 0.02 0.02 0.03 0.02 0.01 0.02 0.02 0.02 0.02 0.02 0.02 0.02 0.01 0.01 0.01 0.01 0.01 0.00 0.01 0.01 0.01 0.00 0.00 0.00 0.00 0.00 0.00 0.00 0.00 0.01 0.01 0.01 0.03 0.03 0.01 0.01 0.01 0.01
0.00 0.00 0.01 0.01 0.02 0.03 0.03 0.03 0.03 0.02 0.02 0.02 0.02 0.02 0.02 0.02 0.02 0.01 0.02 0.01 0.01 0.01 0.01 0.01 0.01 0.00 0.00 0.00 0.00 0.00 0.00 0.00 0.00 0.01 0.01 0.01 0.02 0.03 0.02 0.01 0.01 0.02 0.02
0.00 0.00 0.01 0.02 0.02 0.03 0.04 0.04 0.03 0.03 0.03 0.02 0.02 0.02 0.02 0.02 0.02 0.02 0.01 0.01 0.01 0.01 0.01 0.01 0.00 0.00 0.00 0.00 0.00 0.00 0.00 0.00 0.00 0.01 0.01 0.01 0.01 0.03 0.02 0.02 0.02 0.01 0.01
0.00 0.00 0.01 0.02 0.03 0.04 0.06 0.06 0.05 0.04 0.04 0.03 0.02 0.02 0.02 0.02 0.02 0.02 0.01 0.01 0.01 0.01 0.01 0.01 0.00 0.00 0.00 0.00 0.00 0.00 0.00 0.00 0.00 0.00 0.00 0.01 0.01 0.02 0.02 0.02 0.01 0.01 0.00
0.00 0.01 0.02 0.04 0.05 0.06 0.07 0.07 0.08 0.06 0.05 0.05 0.04 0.03 0.03 0.02 0.02 0.02 0.01 0.01 0.01 0.01 0.01 0.01 0.00 0.00 0.00 0.00 0.00 0.00 0.00 0.00 0.00 0.00 0.00 0.00 0.01 0.01 0.01 0.01 0.01 0.01 0.01
0.01 0.01 0.03 0.05 0.07 0.08 0.10 0.09 0.10 0.09 0.08 0.06 0.06 0.05 0.03 0.02 0.02 0.02 0.01 0.01 0.01 0.01 0.01 0.01 0.01 0.00 0.00 0.00 0.00 0.00 0.00 0.00 0.00 0.00 0.00 0.00 0.01 0.01 0.01 0.01 0.01 0.01 0.01
0.01 0.02 0.03 0.07 0.10 0.12 0.13 0.12 0.13 0.12 0.11 0.09 0.08 0.07 0.04 0.02 0.02 0.01 0.01 0.01 0.01 0.01 0.01 0.01 0.01 0.00 0.00 0.00 0.00 0.00 0.00 0.00 0.00 0.00 0.00 0.00 0.01 0.01 0.01 0.01 0.01 0.01 0.00
0.02 0.02 0.04 0.08 0.11 0.14 0.15 0.14 0.17 0.16 0.13 0.11 0.09 0.06 0.04 0.03 0.02 0.01 0.01 0.01 0.01 0.01 0.01 0.01 0.01 0.00 0.00 0.00 0.00 0.00 0.00 0.00 0.00 0.00 0.00 0.00 0.01 0.02 0.01 0.01 0.00 0.00 0.00
0.02 0.03 0.04 0.08 0.12 0.16 0.17 0.16 0.17 0.17 0.14 0.11 0.09 0.06 0.04 0.03 0.02 0.01 0.01 0.01 0.01 0.01 0.01 0.01 0.01 0.00 0.00 0.00 0.00 0.00 0.00 0.00 0.00 0.00 0.00 0.01 0.01 0.02 0.01 0.00 0.00 0.00 0.00
0.04 0.05 0.05 0.08 0.13 0.15 0.17 0.20 0.20 0.18 0.15 0.12 0.11 0.08 0.05 0.03 0.02 0.01 0.01 0.01 0.01 0.01 0.01 0.01 0.00 0.00 0.00 0.00 0.00 0.00 0.00 0.00 0.00 0.00 0.00 0.00 0.01 0.02 0.01 0.00 0.00 0.00 0.00
0.04 0.07 0.08 0.09 0.12 0.14 0.17 0.22 0.25 0.21 0.16 0.12 0.12 0.11 0.07 0.04 0.02 0.01 0.01 0.00 0.00 0.00 0.01 0.00 0.00 0.00 0.00 0.00 0.00 0.00 0.00 0.00 0.00 0.00 0.00 0.00 0.01 0.01 0.00 0.00 0.00 0.00 0.00
0.03 0.06 0.10 0.11 0.13 0.15 0.17 0.20 0.24 0.27 0.23 0.17 0.13 0.10 0.08 0.05 0.03 0.02 0.01 0.01 0.00 0.00 0.00 0.00 0.00 0.00 0.00 0.00 0.00 0.00 0.00 0.00 0.00 0.00 0.00 0.00 0.00 0.00 0.00 0.00 0.00 0.00 0.00
0.02 0.05 0.10 0.12 0.14 0.17 0.19 0.22 0.22 0.27 0.28 0.22 0.18 0.15 0.11 0.06 0.03 0.02 0.02 0.01 0.00 0.00 0.00 0.00 0.00 0.00 0.00 0.00 0.00 0.00 0.00 0.00 0.00 0.00 0.00 0.00 0.00 0.00 0.00 0.00 0.00 0.00 0.00
0.01 0.04 0.09 0.11 0.13 0.18 0.21 0.24 0.24 0.24 0.26 0.24 0.18 0.18 0.16 0.12 0.08 0.06 0.03 0.01 0.00 0.00 0.00 0.00 0.00 0.00 0.00 0.00 0.00 0.00 0.00 0.00 0.00 0.00 0.00 0.00 0.00 0.00 0.00 0.00 0.00 0.00 0.00
0.01 0.03 0.09 0.13 0.13 0.15 0.21 0.24 0.27 0.28 0.26 0.25 0.22 0.17 0.14 0.11 0.09 0.07 0.05 0.03 0.01 0.00 0.00 0.00 0.00 0.00 0.00 0.00 0.00 0.00 0.00 0.00 0.00 0.00 0.00 0.00 0.00 0.00 0.00 0.00 0.00 0.00 0.00
0.02 0.02 0.07 0.13 0.13 0.14 0.18 0.24 0.27 0.31 0.31 0.26 0.24 0.21 0.16 0.09 0.06 0.05 0.04 0.03 0.02 0.01 0.01 0.00 0.00 0.00 0.00 0.00 0.00 0.00 0.00 0.00 0.00 0.00 0.00 0.00 0.00 0.00 0.00 0.00 0.00 0.00 0.00
0.02 0.03 0.06 0.14 0.16 0.17 0.20 0.21 0.23 0.25 0.31 0.29 0.23 0.23 0.21 0.14 0.09 0.07 0.06 0.04 0.03 0.02 0.01 0.01 0.00 0.00 0.00 0.00 0.00 0.00 0.00 0.00 0.00 0.00 0.00 0.00 0.00 0.00 0.00 0.00 0.00 0.00 0.00
0.02 0.02 0.04 0.12 0.18 0.19 0.19 0.20 0.20 0.21 0.25 0.31 0.25 0.22 0.22 0.18 0.13 0.09 0.07 0.06 0.05 0.04 0.03 0.02 0.01 0.00 0.00 0.00 0.00 0.00 0.00 0.00 0.00 0.00 0.00 0.00 0.00 0.00 0.00 0.00 0.00 0.00 0.00
0.02 0.03 0.03 0.07 0.15 0.18 0.20 0.23 0.23 0.24 0.28 0.32 0.31 0.24 0.20 0.19 0.16 0.12 0.08 0.05 0.04 0.04 0.04 0.03 0.02 0.01 0.00 0.00 0.00 0.00 0.00 0.00 0.00 0.00 0.00 0.00 0.00 0.00 0.00 0.00 0.00 0.00 0.00
0.02 0.03 0.04 0.06 0.11 0.16 0.20 0.24 0.26 0.24 0.24 0.28 0.29 0.26 0.20 0.16 0.17 0.14 0.10 0.07 0.04 0.03 0.03 0.03 0.02 0.01 0.00 0.00 0.00 0.00 0.00 0.00 0.00 0.00 0.00 0.00 0.00 0.00 0.00 0.00 0.00 0.00 0.00
0.02 0.05 0.06 0.07 0.09 0.14 0.17 0.22 0.26 0.24 0.20 0.21 0.27 0.28 0.24 0.18 0.14 0.14 0.11 0.10 0.06 0.04 0.03 0.02 0.02 0.01 0.01 0.00 0.00 0.00 0.00 0.00 0.01 0.00 0.00 0.00 0.00 0.00 0.00 0.00 0.00 0.00 0.00
0.03 0.06 0.09 0.08 0.08 0.12 0.15 0.18 0.23 0.26 0.23 0.22 0.23 0.27 0.30 0.24 0.17 0.13 0.11 0.10 0.09 0.05 0.03 0.02 0.02 0.01 0.01 0.01 0.00 0.00 0.01 0.00 0.00 0.00 0.00 0.00 0.00 0.00 0.00 0.00 0.00 0.00 0.00
MSLP
1006.51 1006.22 1006.11 1006.19 1006.40 1006.70 1007.01 1007.30 1007.53 1007.72 1007.88 1008.07 1008.31 1008.63 1009.02 1009.47 1009.94 1010.39 1010.81 1011.17 1011.48 1011.75 1012.01 1012.27 1012.53 1012.80 1013.07 1013.32 1013.53 1013.69 1013.82 1013.91 1013.98 1014.04 1014.10 1014.16 1014.21 1014.26 1014.30 1014.32 1014.32 1014.32 1014.31
1006.64 1006.36 1006.26 1006.34 1006.55 1006.83 1007.12 1007.39 1007.60 1007.78 1007.95 1008.15 1008.42 1008.77 1009.20 1009.67 1010.16 1010.62 1011.03 1011.37 1011.67 1011.93 1012.18 1012.44 1012.71 1012.99 1013.25 1013.50 1013.69 1013.85 1013.96 1014.04 1014.10 1014.16 1014.24 1014.31 1014.38 1014.44 1014.48 1014.50 1014.50 1014.50 1014.50
1006.50 1006.25 1006.18 1006.27 1006.50 1006.79 1007.09 1007.36 1007.58 1007.77 1007.96 1008.19 1008.49 1008.87 1009.32 1009.81 1010.30 1010.75 1011.14 1011.47 1011.76 1012.01 1012.27 1012.55 1012.84 1013.14 1013.42 1013.67 1013.87 1014.01 1014.10 1014.17 1014.22 1014.29 1014.36 1014.45 1014.53 1014.60 1014.65 1014.67 1014.68 1014.69 1014.72
1006.16 1005.94 1005.90 1006.03 1006.28 1006.60 1006.93 1007.22 1007.47 1007.68 1007.91 1008.17 1008.51 1008.92 1009.39 1009.88 1010.36 1010.80 1011.17 1011.49 1011.77 1012.04 1012.32 1012.63 1012.96 1013.29 1013.61 1013.87 1014.07 1014.21 1014.29 1014.34 1014.38 1014.43 1014.50 1014.59 1014.68 1014.76 1014.81 1014.85 1014.88 1014.91 1014.96
1005.72 1005.53 1005.52 1005.69 1005.97 1006.32 1006.67 1006.99 1007.26 1007.52 1007.78 1008.09 1008.46 1008.90 1009.39 1009.89 1010.37 1010.80 1011.16 1011.47 1011.76 1012.05 1012.36 1012.71 1013.09 1013.47 1013.81 1014.10 1014.31 1014.44 1014.51 1014.55 1014.57 1014.62 1014.68 1014.77 1014.86 1014.94 1015.01 1015.07 1015.12 1015.17 1015.25
1005.34 1005.17 1005.19 1005.37 1005.67 1006.02 1006.38 1006.71 1007.00 1007.28 1007.59 1007.94 1008.36 1008.84 1009.35 1009.87 1010.35 1010.78 1011.14 1011.46 1011.76 1012.08 1012.43 1012.83 1013.25 1013.67 1014.04 1014.35 1014.57 1014.69 1014.76 1014.78 1014.80 1014.84 1014.90 1014.99 1015.09 1015.18 1015.27 1015.34 1015.40 1015.48 1015.58
1005.16 1005.00 1005.02 1005.20 1005.47 1005.80 1006.13 1006.44 1006.73 1007.02 1007.35 1007.74 1008.20 1008.72 1009.28 1009.82 1010.33 1010.77 1011.15 1011.48 1011.81 1012.15 1012.54 1012.97 1013.43 1013.87 1014.27 1014.59 1014.81 1014.94 1015.00 1015.03 1015.05 1015.09 1015.16 1015.26 1015.36 1015.47 1015.57 1015.65 1015.73 1015.82 1015.93
1005.27 1005.10 1005.10 1005.23 1005.45 1005.70 1005.96 1006.21 1006.46 1006.73 1007.07 1007.49 1008.00 1008.57 1009.17 1009.77 1010.31 1010.79 1011.19 1011.55 1011.90 1012.27 1012.68 1013.13 1013.60 1014.06 1014.47 1014.79 1015.01 1015.15 1015.21 1015.24 1015.28 1015.33 1015.42 1015.54 1015.67 1015.79 1015.90 1015.99 1016.08 1016.17 1016.28
1005.68 1005.49 1005.44 1005.49 1005.61 1005.75 1005.89 1006.03 1006.20 1006.43 1006.76 1007.19 1007.74 1008.36 1009.02 1009.67 1010.27 1010.80 1011.24 1011.63 1012.01 1012.40 1012.82 1013.28 1013.75 1014.20 1014.60 1014.92 1015.14 1015.28 1015.35 1015.41 1015.46 1015.55 1015.66 1015.81 1015.97 1016.11 1016.23 1016.33 1016.41 1016.50 1016.60
1006.30 1006.08 1005.96 1005.92 1005.90 1005.89 1005.88 1005.89 1005.95 1006.10 1006.39 1006.82 1007.40 1008.07 1008.80 1009.52 1010.18 1010.76 1011.26 1011.69 1012.10 1012.50 1012.93 1013.38 1013.84 1014.28 1014.66 1014.96 1015.18 1015.32 1015.42 1015.49 1015.58 1015.70 1015.86 1016.04 1016.22 1016.39 1016.52 1016.63 1016.71 1016.78 1016.87
1007.00 1006.76 1006.57 1006.41 1006.24 1006.06 1005.88 1005.73 1005.66 1005.72 1005.96 1006.38 1006.97 1007.68 1008.47 1009.25 1009.99 1010.64 1011.20 1011.68 1012.12 1012.54 1012.97 1013.41 1013.86 1014.27 1014.64 1014.93 1015.14 1015.29 1015.41 1015.51 1015.63 1015.79 1015.98 1016.20 1016.41 1016.60 1016.75 1016.85 1016.93 1017.00 1017.07
1007.67 1007.40 1007.13 1006.86 1006.54 1006.20 1005.84 1005.54 1005.33 1005.29 1005.46 1005.85 1006.44 1007.19 1008.02 1008.87 1009.68 1010.40 1011.03 1011.57 1012.05 1012.50 1012.94 1013.37 1013.80 1014.20 1014.55 1014.83 1015.04 1015.21 1015.34 1015.47 1015.62 1015.81 1016.04 1016.28 1016.52 1016.73 1016.89 1017.01 1017.09 1017.15 1017.22
1008.17 1007.88 1007.56 1007.18 1006.74 1006.25 1005.75 1005.30 1004.97 1004.83 1004.92 1005.28 1005.85 1006.61 1007.48 1008.38 1009.25 1010.05 1010.74 1011.34 1011.87 1012.36 1012.82 1013.26 1013.68 1014.07 1014.41 1014.69 1014.91 1015.09 1015.24 1015.40 1015.58 1015.80 1016.04 1016.30 1016.56 1016.78 1016.96 1017.09 1017.18 1017.25 1017.32
1008.45 1008.15 1007.79 1007.34 1006.81 1006.21 1005.60 1005.04 1004.61 1004.38 1004.41 1004.71 1005.26 1006.01 1006.89 1007.83 1008.75 1009.60 1010.36 1011.02 1011.61 1012.14 1012.63 1013.09 1013.52 1013.91 1014.25 1014.54 1014.78 1014.97 1015.15 1015.32 1015.52 1015.75 1016.01 1016.28 1016.55 1016.78 1016.98 1017.12 1017.23 1017.32 1017.40
1008.50 1008.21 1007.83 1007.35 1006.77 1006.11 1005.43 1004.81 1004.31 1004.02 1003.99 1004.23 1004.74 1005.46 1006.33 1007.27 1008.21 1009.11 1009.92 1010.65 1011.29 1011.86 1012.39 1012.88 1013.33 1013.74 1014.09 1014.40 1014.66 1014.87 1015.07 1015.27 1015.48 1015.72 1015.98 1016.25 1016.51 1016.75 1016.96 1017.12 1017.26 1017.37 1017.47
1008.38 1008.10 1007.73 1007.25 1006.67 1006.00 1005.32 1004.67 1004.15 1003.81 1003.73 1003.92 1004.36 1005.03 1005.86 1006.77 1007.72 1008.63 1009.48 1010.24 1010.94 1011.56 1012.13 1012.65 1013.13 1013.56 1013.94 1014.28 1014.56 1014.80 1015.02 1015.24 1015.46 1015.70 1015.95 1016.21 1016.47 1016.71 1016.92 1017.10 1017.26 1017.40 1017.53
1008.19 1007.93 1007.58 1007.13 1006.58 1005.95 1005.30 1004.68 1004.16 1003.81 1003.68 1003.81 1004.18 1004.77 1005.52 1006.39 1007.30 1008.20 1009.06 1009.86 1010.59 1011.25 1011.86 1012.42 1012.93 1013.39 1013.80 1014.16 1014.48 1014.76 1015.00 1015.24 1015.47 1015.70 1015.95 1016.19 1016.43 1016.66 1016.87 1017.06 1017.23 1017.39 1017.54
1008.00 1007.76 1007.45 1007.04 1006.55 1006.00 1005.40 1004.83 1004.34 1004.00 1003.84 1003.90 1004.19 1004.68 1005.34 1006.12 1006.97 1007.84 1008.69 1009.49 1010.25 1010.95 1011.59 1012.18 1012.72 1013.22 1013.66 1014.06 1014.41 1014.72 1015.00 1015.25 1015.49 1015.73 1015.96 1016.18 1016.40 1016.60 1016.80 1016.99 1017.16 1017.33 1017.50
1007.87 1007.66 1007.38 1007.03 1006.61 1006.13 1005.62 1005.11 1004.67 1004.33 1004.14 1004.14 1004.33 1004.72 1005.26 1005.94 1006.71 1007.52 1008.34 1009.14 1009.91 1010.63 1011.31 1011.93 1012.51 1013.03 1013.51 1013.94 1014.33 1014.68 1014.99 1015.27 1015.52 1015.75 1015.96 1016.16 1016.35 1016.53 1016.70 1016.86 1017.03 1017.20 1017.36
1007.84 1007.64 1007.39 1007.09 1006.73 1006.32 1005.89 1005.45 1005.05 1004.72 1004.51 1004.45 1004.54 1004.81 1005.24 1005.80 1006.47 1007.21 1007.99 1008.78 1009.55 1010.30 1011.00 1011.66 1012.26 1012.83 1013.34 1013.81 1014.23 1014.61 1014.95 1015.26 1015.52 1015.75 1015.94 1016.12 1016.27 1016.41 1016.54 1016.68 1016.83 1016.97 1017.13
1007.88 1007.69 1007.46 1007.18 1006.86 1006.51 1006.13 1005.75 1005.39 1005.07 1004.84 1004.71 1004.72 1004.87 1005.18 1005.62 1006.20 1006.86 1007.60 1008.37 1009.15 1009.92 1010.65 1011.34 1011.99 1012.58 1013.13 1013.64 1014.10 1014.51 1014.88 1015.20 1015.47 1015.70 1015.88 1016.03 1016.14 1016.24 1016.34 1016.44 1016.55 1016.67 1016.80
1007.96 1007.78 1007.55 1007.27 1006.97 1006.64 1006.29 1005.94 1005.61 1005.29 1005.04 1004.86 1004.78 1004.84 1005.03 1005.37 1005.85 1006.45 1007.14 1007.89 1008.68 1009.47 1010.24 1010.98 1011.66 1012.30 1012.89 1013.42 1013.91 1014.36 1014.75 1015.09 1015.37 1015.59 1015.76 1015.88 1015.96 1016.03 1016.08 1016.14 1016.22 1016.32 1016.43
1008.04 1007.86 1007.61 1007.31 1006.98 1006.65 1006.31 1005.97 1005.64 1005.33 1005.05 1004.83 1004.69 1004.66 1004.76 1005.01 1005.41 1005.94 1006.60 1007.34 1008.14 1008.96 1009.77 1010.55 1011.29 1011.97 1012.59 1013.16 1013.67 1014.13 1014.54 1014.89 1015.18 1015.40 1015.56 1015.66 1015.72 1015.76 1015.79 1015.82 1015.87 1015.95 1016.04
1008.07 1007.88 1007.60 1007.26 1006.89 1006.53 1006.17 1005.83 1005.50 1005.18 1004.89 1004.64 1004.45 1004.36 1004.38 1004.56 1004.89 1005.37 1005.99 1006.73 1007.54 1008.39 1009.25 1010.07 1010.85 1011.58 1012.23 1012.83 1013.36 1013.84 1014.26 1014.61 1014.90 1015.12 1015.28 1015.38 1015.43 1015.46 1015.47 1015.49 1015.53 1015.60 1015.70
1008.04 1007.84 1007.52 1007.12 1006.70 1006.29 1005.90 1005.55 1005.21 1004.90 1004.60 1004.33 1004.12 1003.97 1003.94 1004.05 1004.32 1004.76 1005.35 1006.08 1006.90 1007.78 1008.67 1009.54 1010.37 1011.13 1011.82 1012.44 1012.99 1013.47 1013.89 1014.25 1014.54 1014.77 1014.93 1015.04 1015.10 1015.13 1015.16 1015.18 1015.23 1015.31 1015.41
1007.94 1007.73 1007.37 1006.92 1006.45 1005.98 1005.57 1005.19 1004.85 1004.54 1004.25 1003.98 1003.74 1003.57 1003.49 1003.55 1003.76 1004.15 1004.71 1005.42 1006.24 1007.14 1008.06 1008.97 1009.84 1010.63 1011.35 1011.99 1012.55 1013.04 1013.46 1013.82 1014.12 1014.35 1014.53 1014.66 1014.75 1014.81 1014.86 1014.91 1014.98 1015.08 1015.21
Thickness
5792 5794 5790 5788 5786 5784 5783 5781 5780 5777 5775 5773 5771 5770 5768 5767 5765 5763 5762 5760 5759 5757 5755 5754 5752 5750 5748 5746 5744 5742 5741 5739 5738 5736 5735 5733 5731 5730 5728 5726 5724 5722 5721
5792 5790 5785 5783 5781 5780 5778 5777 5775 5773 5772 5770 5768 5766 5765 5763 5762 5760 5759 5757 5755 5754 5752 5750 5748 5746 5744 5742 5740 5738 5737 5735 5734 5732 5731 5729 5727 5726 5724 5722 5720 5718 5716
5788 5785 5780 5778 5776 5775 5774 5772 5771 5769 5767 5766 5764 5762 5761 5759 5758 5756 5755 5753 5752 5750 5748 5747 5745 5743 5740 5738 5736 5734 5733 5732 5730 5729 5727 5725 5723 5722 5720 5717 5716 5714 5712
5783 5780 5775 5772 5771 5769 5768 5767 5766 5764 5763 5761 5760 5758 5757 5755 5754 5752 5751 5749 5748 5746 5744 5743 5741 5738 5736 5734 5732 5731 5730 5729 5727 5726 5724 5721 5720 5718 5716 5713 5711 5709 5707
5776 5775 5771 5767 5765 5764 5763 5762 5761 5759 5758 5756 5755 5754 5753 5751 5750 5748 5746 5745 5743 5742 5740 5738 5736 5734 5732 5730 5728 5727 5726 5725 5723 5722 5720 5717 5715 5713 5711 5708 5706 5704 5701
5767 5768 5765 5762 5760 5758 5757 5756 5755 5754 5753 5752 5750 5749 5748 5746 5745 5743 5741 5740 5738 5737 5735 5734 5732 5730 5728 5726 5724 5723 5722 5721 5720 5718 5715 5713 5710 5709 5706 5704 5701 5699 5696
5758 5760 5758 5756 5754 5752 5751 5751 5749 5749 5748 5747 5745 5744 5743 5741 5740 5738 5736 5735 5733 5732 5730 5729 5727 5725 5723 5721 5720 5719 5718 5717 5716 5714 5711 5708 5706 5704 5701 5699 5696 5694 5691
5749 5751 5751 5749 5748 5746 5746 5745 5744 5743 5742 5741 5740 5738 5737 5736 5734 5732 5731 5729 5728 5727 5725 5724 5722 5721 5719 5717 5715 5714 5714 5713 5711 5709 5706 5703 5701 5699 5697 5694 5691 5689 5686
5740 5740 5741 5741 5740 5740 5739 5739 5738 5737 5736 5736 5735 5733 5731 5730 5728 5727 5725 5724 5723 5722 5720 5719 5717 5716 5714 5712 5711 5710 5709 5709 5707 5705 5701 5699 5697 5695 5692 5689 5686 5683 5681
5728 5729 5731 5733 5733 5733 5732 5732 5732 5731 5731 5730 5729 5727 5725 5724 5722 5721 5720 5718 5717 5716 5715 5714 5712 5710 5709 5707 5706 5706 5705 5704 5703 5700 5697 5694 5692 5690 5687 5684 5681 5678 5675
5714 5717 5720 5723 5725 5725 5725 5725 5725 5725 5724 5723 5722 5721 5719 5717 5716 5715 5714 5713 5711 5711 5710 5708 5707 5705 5703 5702 5702 5701 5701 5700 5698 5695 5692 5689 5687 5685 5682 5679 5676 5673 5670
5700 5706 5710 5713 5715 5716 5717 5717 5718 5717 5717 5717 5716 5715 5714 5713 5711 5710 5708 5707 5706 5705 5704 5703 5701 5700 5698 5698 5697 5697 5697 5696 5694 5690 5687 5685 5683 5680 5677 5674 5671 5668 5665
5690 5695 5700 5703 5706 5707 5709 5710 5711 5711 5710 5711 5710 5710 5709 5708 5706 5704 5702 5701 5700 5699 5698 5697 5696 5695 5694 5694 5693 5693 5693 5692 5690 5686 5683 5680 5678 5676 5673 5670 5667 5663 5660
5679 5684 5689 5693 5695 5698 5700 5703 5705 5705 5705 5705 5706 5705 5705 5703 5701 5699 5698 5696 5695 5695 5693 5692 5692 5692 5691 5690 5690 5689 5689 5688 5685 5681 5678 5676 5673 5671 5668 5665 5662 5659 5655
5667 5673 5678 5682 5685 5689 5692 5694 5697 5698 5699 5700 5701 5701 5700 5698 5696 5695 5694 5692 5692 5691 5689 5688 5688 5688 5688 5687 5686 5686 5685 5683 5680 5677 5674 5671 5668 5666 5663 5660 5657 5654 5650
5656 5662 5667 5671 5675 5679 5683 5687 5690 5692 5694 5694 5695 5696 5696 5694 5692 5691 5689 5688 5688 5687 5685 5685 5685 5684 5683 5683 5682 5681 5680 5678 5675 5672 5669 5666 5664 5661 5658 5655 5652 5649 5645
5645 5651 5656 5660 5664 5669 5673 5677 5682 5686 5688 5689 5690 5690 5691 5690 5688 5687 5686 5684 5684 5682 5681 5681 5681 5680 5679 5678 5677 5676 5675 5673 5671 5668 5665 5662 5659 5656 5653 5650 5647 5643 5640
5633 5639 5644 5648 5653 5657 5663 5667 5673 5676 5680 5682 5683 5684 5684 5685 5684 5683 5681 5680 5679 5678 5677 5677 5676 5674 5673 5671 5670 5670 5669 5667 5665 5663 5661 5658 5655 5652 5649 5645 5642 5638 5635
5621 5627 5632 5637 5641 5646 5652 5657 5663 5667 5671 5675 5677 5678 5679 5679 5679 5678 5677 5675 5674 5673 5672 5672 5671 5669 5666 5665 5664 5663 5663 5661 5660 5658 5656 5654 5651 5648 5644 5641 5637 5633 5630
5610 5616 5621 5626 5630 5635 5640 5645 5651 5657 5662 5667 5672 5675 5674 5674 5674 5674 5672 5671 5669 5667 5666 5666 5665 5663 5662 5660 5659 5657 5656 5656 5655 5653 5651 5649 5647 5644 5640 5636 5632 5628 5625
5598 5603 5609 5613 5618 5624 5629 5634 5639 5646 5652 5658 5664 5668 5668 5668 5668 5669 5667 5666 5664 5663 5662 5661 5660 5658 5656 5655 5651 5647 5648 5649 5649 5648 5647 5645 5642 5640 5636 5632 5628 5624 5620
5586 5592 5597 5602 5608 5614 5620 5626 5631 5637 5643 5648 5654 5658 5662 5663 5663 5663 5663 5661 5660 5658 5656 5656 5655 5652 5650 5650 5646 5641 5638 5638 5640 5643 5641 5640 5638 5635 5632 5628 5624 5620 5616
5576 5582 5587 5593 5599 5604 5610 5615 5620 5626 5632 5637 5645 5651 5655 5657 5657 5658 5658 5657 5656 5654 5653 5652 5651 5649 5646 5644 5644 5642 5636 5634 5634 5635 5635 5635 5633 5630 5627 5624 5620 5616 5611
5566 5572 5576 5582 5589 5595 5601 5606 5612 5618 5625 5633 5640 5644 5646 5650 5651 5652 5652 5652 5651 5651 5650 5649 5648 5646 5644 5640 5639 5641 5641 5640 5632 5627 5628 5629 5628 5625 5622 5620 5616 5611 5607
5557 5561 5566 5572 5579 5587 5593 5598 5605 5612 5619 5624 5631 5636 5639 5643 5646 5647 5647 5646 5646 5647 5647 5646 5644 5643 5641 5639 5637 5636 5636 5635 5634 5627 5622 5621 5621 5620 5618 5615 5611 5607 5602
5547 5552 5555 5564 5571 5579 5585 5591 5598 5605 5611 5616 5623 5629 5633 5637 5639 5641 5642 5641 5642 5643 5644 5643 5642 5640 5639 5637 5635 5634 5633 5631 5629 5626 5621 5617 5615 5614 5613 5611 5607 5602 5598